FENGYUN 1C DEB, 30873

Orbit data source: Space-Track

FENGYUN 1C DEB, 30873 is space debris in SSO originally from a launch on Mon, 10 May 1999 UTC launched from the Taiyaun Space Center, China (TSC). Fengyun 1C debris stems from the Chinese weather satellite Fengyun-1C, which was intentionally destroyed by a Chinese anti-satellite missile in 2007. This event dramatically increased the amount of space debris, with thousands of trackable fragments posing hazards to satellites and human spaceflight. The Fengyun 1C debris cloud has become a focal point in discussions about space sustainability and the need for international regulations to prevent the creation of new debris.

Loading next visibility...
Identifier
30873, 1999-025AXK
Orbit
SSO
Country
Flag of CNCN / PRC
Related business
Manufacturer
Unknown
Mission
Spacecraft
Bus & Motor
Unknown
Mass
Unknown
Launch date (UTC)
1999-05-10 (27 years ago)
Launch vehicle
Unknown
Launch site
Taiyaun Space Center, China (TSC)
Object type
Payload
Rocket body
Debris
Shape & HBR
Unknown shape, 0.1 m
Radar Cross Section
Small (<0.1 m²)

Expand to show TLE details & history
Last TLE update: 15 hours ago

TLE from 15 hours ago
0 FENGYUN 1C DEB
1 30873U 99025AXK 26106.52541347  .00000204  00000-0  11171-3 0  9992
2 30873  98.6167 108.3994 0107418 288.6516  70.3022 14.19260564989627
Epoch: 2026-04-16T12:36Z
TLE epoch observation values (Epoch: 2026-04-16T12:36:35.723Z)
Latitude
-0.00006°
Longitude
74.57886°
Altitude
805.417 km
Speed
7.464 km/s
True Right ascension
07h 13m 35s
True Declination
0° 00' 00"
Sunlit
Object was in daylight at epoch
Visualization orbit readout
Latitude
Unknown
Longitude
Unknown
Altitude
Unknown
Speed
Unknown
Apparent Right ascension
Unknown
Apparent Declination
Unknown
Sunlit
N/A
Visualization observer readout
Local Sidereal Time
10:01:19
Azimuth
Unknown
Elevation
Unknown
Doppler factor
Unknown
Orbital elements
Apogee altitude
902.384 km
Perigee altitude
747.634 km
Semi-major axis
7,203.146 km
Eccentricity
0.01074
Inclination
98.6167°
RAAN
108.3994°
Arg. of periapsis
288.6516°
True anomaly
71.46628°
Mean anomaly
70.3022°
Eccentric anomaly
70.88372°
Mean motion
3.55026 °/min
Orbital period
101.4 mins
BSTAR
0.00011171
Loading maneuver chart data...
Computing Atmospheric mass density...
Loading historical data...
Loading historical data...
Loading historical data...
Loading historical data...
Loading historical data...
Loading historical data...
Loading historical data...

Documentation

Showing up to 5 results
|